Temp
9 9 9 8 8 8 8 7 7 7 7 6 6 6 6 6 5 5 5 4 4 3
9 9 9 8 8 8 7 7 6 6 6 6 6 6 6 5 5 5 4 4 3 3
10 10 9 8 8 7 7 6 6 6 5 5 5 5 5 5 5 5 4 4 3 3
10 10 9 9 8 8 7 6 5 5 4 4 5 5 5 5 5 4 4 3 2 2
9 9 9 8 8 7 6 6 5 5 4 4 4 4 4 4 4 3 3 2 2 1
8 8 8 8 7 7 6 6 5 5 5 4 4 4 4 4 3 3 3 2 1 0
7 8 8 7 7 7 6 6 6 5 4 4 3 3 3 3 3 2 2 2 1 0
6 6 7 7 6 6 6 6 5 5 4 4 3 3 2 2 2 2 2 1 1 0
6 6 6 6 5 5 5 5 5 5 4 4 3 3 2 2 1 1 1 0 0 -0
5 5 5 5 5 5 5 4 4 4 4 4 3 2 2 1 1 0 -0 -0 -1 -1
5 5 5 5 5 4 4 4 4 3 3 3 3 2 1 1 0 0 -1 -1 -2 -2
5 5 5 5 5 4 4 4 3 3 3 3 3 2 1 0 -0 -0 -1 -2 -2 -3
4 4 4 4 4 4 3 3 3 3 2 2 2 1 1 -0 -1 -1 -1 -2 -3 -3
3 3 3 3 3 3 3 3 2 2 2 1 1 1 0 -1 -1 -1 -2 -3 -3 -4
Height
1520 1518 1517 1515 1513 1512 1511 1511 1509 1508 1507 1506 1504 1502 1500 1498 1496 1494 1492 1490 1488 1487
1516 1514 1512 1511 1509 1508 1507 1506 1504 1504 1503 1502 1500 1499 1497 1496 1494 1492 1490 1489 1487 1486
1511 1510 1508 1506 1505 1503 1502 1501 1499 1499 1498 1497 1496 1495 1493 1492 1491 1489 1487 1486 1484 1483
1507 1505 1502 1500 1499 1498 1497 1496 1494 1494 1493 1492 1491 1491 1490 1489 1487 1485 1484 1482 1481 1479
1502 1499 1496 1495 1494 1493 1491 1490 1489 1488 1486 1486 1485 1485 1484 1483 1482 1481 1480 1479 1478 1477
1496 1493 1491 1490 1489 1487 1485 1484 1483 1481 1480 1479 1478 1478 1477 1477 1477 1475 1474 1474 1474 1473
1489 1486 1484 1483 1483 1481 1480 1478 1477 1475 1474 1473 1472 1471 1471 1471 1471 1471 1469 1468 1467 1468
1484 1481 1479 1478 1477 1475 1473 1472 1470 1468 1467 1467 1466 1466 1465 1465 1465 1465 1464 1463 1462 1462
1481 1477 1474 1472 1471 1469 1467 1465 1463 1461 1460 1460 1460 1460 1459 1458 1458 1458 1459 1459 1458 1457
1477 1474 1471 1468 1466 1463 1461 1458 1457 1455 1453 1453 1453 1453 1453 1452 1451 1451 1452 1453 1453 1452
1474 1470 1467 1464 1461 1458 1456 1453 1450 1449 1447 1445 1446 1446 1445 1445 1444 1444 1445 1446 1446 1447
1470 1466 1463 1459 1456 1453 1449 1446 1444 1442 1440 1438 1438 1438 1438 1438 1436 1437 1438 1439 1440 1440
1467 1463 1459 1455 1452 1449 1445 1441 1438 1434 1432 1430 1429 1430 1429 1430 1430 1431 1432 1433 1434 1434
1463 1459 1455 1451 1448 1444 1439 1435 1432 1428 1426 1423 1423 1422 1422 1423 1423 1425 1426 1427 1427 1427
Wind_Speed
18 19 20 19 19 20 21 20 19 18 18 17 17 16 15 15 14 14 13 13 12 10
21 22 22 20 21 22 22 21 21 21 20 19 18 17 16 16 16 15 14 13 13 12
21 23 23 23 23 23 22 22 22 22 22 21 20 19 18 17 16 16 15 14 13 13
23 23 24 25 23 22 22 22 22 22 23 23 22 21 20 18 18 17 16 15 14 13
25 24 24 23 21 21 22 22 22 22 23 23 23 22 22 20 19 18 17 16 15 14
25 23 23 21 19 20 21 22 22 23 23 23 23 24 23 23 21 20 18 17 17 15
22 22 22 21 20 20 20 22 23 23 23 23 23 24 24 24 23 21 20 18 17 16
20 19 19 19 20 22 23 23 22 23 24 24 24 24 24 24 24 23 21 20 19 18
18 18 17 17 19 21 22 22 23 24 24 25 25 24 24 25 25 24 23 22 19 18
18 18 17 18 19 22 24 25 25 24 24 25 26 25 24 25 25 25 24 22 20 18
18 19 19 19 20 22 24 24 24 24 24 25 24 25 25 24 25 25 24 23 21 21
21 22 23 24 24 24 25 25 27 27 27 26 24 23 23 24 26 26 25 23 22 25
22 23 25 25 26 26 26 27 27 27 26 27 27 23 23 23 26 26 25 25 24 27
22 23 24 25 25 26 26 26 25 26 24 25 24 22 21 20 25 24 25 23 24 25
Wind_Direction
301 299 297 297 292 287 288 291 293 295 298 301 305 310 315 318 318 317 317 316 317 314
291 289 294 295 290 289 288 289 288 290 291 293 296 300 304 308 311 312 313 313 312 311
297 288 285 286 289 292 292 290 287 287 287 286 288 292 295 298 302 303 304 305 305 307
302 293 284 280 285 291 292 292 289 288 286 285 286 287 289 292 294 296 297 299 298 299
303 294 288 286 287 287 289 289 291 289 286 284 282 282 283 286 288 290 293 293 293 295
300 295 285 283 285 285 285 287 287 287 287 284 279 277 278 280 282 283 284 286 288 288
308 294 287 279 282 288 288 286 285 284 285 284 282 279 277 279 280 279 279 280 282 279
318 312 301 287 280 285 291 291 288 283 281 282 282 282 280 278 278 276 274 273 276 276
328 324 315 300 288 289 295 297 293 289 283 279 279 283 281 278 276 276 273 272 275 272
326 324 321 315 306 300 298 297 296 293 287 282 278 278 279 277 276 275 272 268 268 267
335 333 330 323 315 309 305 304 301 297 292 286 281 275 272 273 273 273 270 264 263 272
335 335 335 332 328 323 315 309 303 297 293 290 286 278 269 265 266 268 268 265 264 271
330 332 331 330 329 324 318 314 310 305 298 292 287 279 269 257 260 262 266 266 270 278
323 326 327 328 328 325 322 318 314 310 307 300 292 282 268 253 256 263 266 265 268 277